Regional Weather Roundup
Issued by NWS

Home | Current Version | Previous Version | Graphics & Text | Print | Product List | Glossary On
Versions: 1 2 3 4 5 6 7 8 9 10 11 12 13 14 15 16 17 18 19 20 21 22 23 24 25 26 27 28 29 30 31 32 33 34 35 36 37 38 39 40 41 42 43 44 45 46 47 48 49 50
000
ASUS43 KFSD 192310
RWRSD

WEATHER ROUNDUP FOR SOUTH DAKOTA
NATIONAL WEATHER SERVICE SIOUX FALLS SD
600 PM CDT THU OCT 19 2017

NOTE: "FAIR" INDICATES FEW OR NO CLOUDS BELOW 12,000 FEET WITH NO
SIGNIFICANT WEATHER AND/OR OBSTRUCTIONS TO VISIBILITY.


SDZ001>005-009-010-012>017-200000-
NORTHWEST AND NORTH CENTRAL SOUTH DAKOTA

CITY           SKY/WX    TMP DP  RH WIND       PRES   REMARKS
BUFFALO          N/A     76  29  17 SE8       29.67F
FAITH            N/A     75  27  17 SE9       29.74F
MOBRIDGE       CLEAR     73  41  31 S8        29.72F
$$

SDZ012>016-024>037-041>051-057-063-072>074-200000-
SOUTHWEST AND SOUTH CENTRAL SOUTH DAKOTA

CITY           SKY/WX    TMP DP  RH WIND       PRES   REMARKS
RAPID CTY ARPT CLEAR     80  19  10 SW10      29.76S
PIERRE         CLEAR     78  39  24 S9        29.72F
CUSTER         SUNNY     70  14  11 VRB7      29.91F
ELLSWORTH AFB  CLEAR     80  18  10 SW10      29.75S
PHILIP         CLEAR     82  32  16 S6        29.73F
PINE RIDGE     CLEAR     81  24  12 S10       29.81F
SPEARFISH      FAIR      72  32  23 CALM      29.79F
WINNER         FAIR      80  42  25 S20G26    29.79F
$$

SDZ004>011-016>023-039-040-200000-
NORTHEAST SOUTH DAKOTA

CITY           SKY/WX    TMP DP  RH WIND       PRES   REMARKS
ABERDEEN       CLEAR     73  45  36 S9        29.77S
WATERTOWN      CLEAR     68  50  52 S10       29.83S
BROOKINGS      CLEAR     69  50  50 S17       29.86F
SISSETON         N/A     73  46  38 S7        29.78S
$$

SDZ017-020-022-023-036>040-048>070-200000-
SOUTHEAST SOUTH DAKOTA

CITY           SKY/WX    TMP DP  RH WIND       PRES   REMARKS
SIOUX FALLS    CLEAR     72  52  49 S13       29.89F
HURON          CLEAR     74  46  36 S12       29.80F
CHAMBERLAIN    CLEAR     79  47  32 S12       29.79S
MITCHELL       CLEAR     76  45  33 S15       29.83S
YANKTON        CLEAR     74  51  44 SE14      29.88F
$$

ABBREVIATIONS USED IN REMARKS
   TC - TEMPERATURE IN CELSIUS
  WCI - WIND CHILL INDEX
   HX - HEAT INDEX
  VSB - VISIBILITY





USA.gov is the U.S. government's official web portal to all federal, state and local government web resources and services.